Location: Newark
(25.5428°S, 54.5819°W)
Time: 22:36:41
(UTC+00:00)

Envisat - Pass Details

Date: 23 July 2019
Orbit: 764 x 766 km, 98.1° (Epoch: 24 August)

Event Time Altitude Azimuth Distance (km) Brightness Sun altitude
Exits shadow 22:15:51 - 155° (SSE) 2,372 5.2 -15.2°
Reaches altitude 10° 22:15:58 10° 154° (SSE) 2,324 5.1 -15.2°
Maximum altitude 22:20:55 48° 80° (E) 1,005 3.2 -16.3°
Drops below altitude 10° 22:25:47 10° 6° (N) 2,298 5.6 -17.3°
Sets 22:28:09 0° 0° (N) 3,216 6.4 -17.8°
